Powrót do katalogu

NOAA 16 DEB

AktywnySSO
NORAD 41154·DEBRIS·🇺🇸 United States

Wystrzelony Sep 21, 2000 z Vandenberg Space Force Base

Loading…

Następne Przeloty (najbliższe 24 godziny)

TLE

ŚwieżeSource: Space-Track

Epoka: Sep 14, 2026, 06:39 UTC

1 41154U 00055CM  26257.27720419  .00001804  00000-0  98484-3 0  9998
2 41154  98.7602 276.3037 0057252  84.8862 275.8842 14.12459602552174

Śledź NOAA 16 DEB w czasie rzeczywistym z AllMySat

Download on the App Store